Weather History for Crystal River, FL

Change the Weather History Date:

Wednesday, December 12, 2012

  Actual Average (KBKV) Record (KBKV)
Temperature  
Mean Temperature 66 °F -  
Max Temperature 71 °F 69 °F 84 °F (2001)
Min Temperature 60 °F 45 °F 32 °F (2005)
Growing Degree Days 16 (Base 50)    
Moisture  
Dew Point 65 °F    
Average Humidity 97    
Maximum Humidity 100    
Minimum Humidity 88    
Precipitation  
Precipitation 0.14 in - - ()
Sea Level Pressure  
Sea Level Pressure 30.05 in    
Wind  
Wind Speed 3 mph (NNE)    
Max Wind Speed 12 mph    
Max Gust Speed 17 mph    
Visibility 7 miles    
Events Rain , Thunderstorm    
Averages and records for this station are not official NWS values.
T = Trace of Precipitation, MM = Missing Value Source: NWS Daily Summary

Daily Weather History Graph

Daily Weather History Graph

Search for Another Location

Airport:

Trip Planner

Search our weather history database for the weather conditions in past years. The results will help you decide how hot, cold, wet, or windy it might be!

Date:

Astronomy

Dec. 12, 2012 Rise Set
Actual Time 7:14 AM EST 5:34 PM EST
Civil Twilight 6:48 AM EST 6:00 PM EST
Nautical Twilight 6:18 AM EST 6:29 PM EST
Astronomical Twilight 5:50 AM EST 6:58 PM EST
Moon 6:19 AM EST (12/12) 5:08 PM EST (12/12)
Length of Visible Light 11h 11m
Length of Day
10h 19m
Waning Crescent, 1% of the Moon is Illuminated
Dec 12
Waning Crescent
Dec 13
New
Dec 20
First Quarter
Dec 28
Full
Jan 4
Last Quarter

Hourly Weather History & Observations

Time (EST) Temp. Dew Point Humidity Pressure Visibility Wind Dir Wind Speed Gust Speed Precip Events Conditions
12:35 AM 69.8 °F 69.8 °F 100% 30.04 in 5.0 mi Calm Calm - N/A   Overcast
12:55 AM 69.8 °F 69.8 °F 100% 30.04 in 10.0 mi Calm Calm - N/A   Overcast
1:15 AM 69.8 °F 69.8 °F 100% 30.03 in 7.0 mi Calm Calm - N/A   Overcast
1:35 AM 69.8 °F 69.8 °F 100% 30.03 in 7.0 mi Calm Calm - N/A Thunderstorm Overcast
1:55 AM 69.8 °F 69.8 °F 100% 30.03 in 5.0 mi Calm Calm - N/A   Overcast
2:15 AM 69.8 °F 69.8 °F 100% 30.02 in 5.0 mi Calm Calm - N/A Rain Light Rain
2:35 AM 69.8 °F 69.8 °F 100% 30.01 in 5.0 mi Calm Calm - N/A   Overcast
2:55 AM 69.8 °F 69.8 °F 100% 30.00 in 4.0 mi Calm Calm - N/A   Overcast
3:15 AM 69.8 °F 69.8 °F 100% 30.00 in 4.0 mi Calm Calm - N/A   Overcast
3:35 AM 69.8 °F 69.8 °F 100% 29.98 in 5.0 mi North 4.6 mph - N/A   Overcast
4:15 AM 66.2 °F 66.2 °F 100% 30.00 in 4.0 mi North 4.6 mph - 0.03 in Rain Heavy Rain
4:35 AM 66.2 °F 66.2 °F 100% 30.00 in 7.0 mi North 4.6 mph - 0.05 in   Overcast
4:55 AM 64.4 °F 64.4 °F 100% 30.00 in 4.0 mi NNE 4.6 mph - 0.05 in Rain Rain
5:15 AM 64.4 °F 64.4 °F 100% 30.01 in 4.0 mi NNW 3.5 mph - 0.01 in Rain Light Rain
5:35 AM 64.4 °F 64.4 °F 100% 30.01 in 7.0 mi North 4.6 mph - 0.01 in   Overcast
5:55 AM 64.4 °F 64.4 °F 100% 30.02 in 7.0 mi NNE 5.8 mph - 0.01 in   Overcast
6:15 AM 64.4 °F 64.4 °F 100% 30.02 in 5.0 mi NNE 5.8 mph - 0.02 in Rain Heavy Rain
6:35 AM 62.6 °F 62.6 °F 100% 30.03 in 7.0 mi NNE 4.6 mph - 0.08 in Rain Light Rain
6:55 AM 62.6 °F 62.6 °F 100% 30.04 in 10.0 mi NNE 3.5 mph - 0.08 in   Drizzle
7:15 AM 62.6 °F 62.6 °F 100% 30.05 in 10.0 mi NE 3.5 mph - N/A   Overcast
7:35 AM 62.6 °F 62.6 °F 100% 30.06 in 10.0 mi ENE 4.6 mph - N/A   Overcast
7:55 AM 62.6 °F 62.6 °F 100% 30.07 in 10.0 mi NE 4.6 mph - N/A   Overcast
8:15 AM 62.6 °F 62.6 °F 100% 30.07 in 10.0 mi NE 4.6 mph - N/A   Light Drizzle
8:35 AM 64.4 °F 62.6 °F 94% 30.08 in 10.0 mi NE 4.6 mph - N/A   Overcast
8:55 AM 64.4 °F 62.6 °F 94% 30.09 in 10.0 mi ENE 3.5 mph - N/A   Overcast
9:15 AM 64.4 °F 62.6 °F 94% 30.09 in 10.0 mi ENE 4.6 mph - N/A   Overcast
9:35 AM 64.4 °F 64.4 °F 100% 30.09 in 10.0 mi NE 3.5 mph - N/A   Overcast
9:55 AM 64.4 °F 64.4 °F 100% 30.10 in 10.0 mi ENE 4.6 mph - N/A   Overcast
10:15 AM 66.2 °F 64.4 °F 94% 30.09 in 10.0 mi ENE 4.6 mph - N/A   Overcast
10:35 AM 68.0 °F 66.2 °F 94% 30.09 in 10.0 mi East 5.8 mph - N/A   Overcast
10:55 AM 69.8 °F 66.2 °F 88% 30.08 in 10.0 mi ENE 4.6 mph - N/A   Overcast
11:15 AM 69.8 °F 66.2 °F 88% 30.07 in 10.0 mi ENE 3.5 mph - N/A   Overcast
11:35 AM 69.8 °F 68.0 °F 94% 30.06 in 10.0 mi NNE 4.6 mph - N/A   Overcast
12:15 PM 71.6 °F 68.0 °F 88% 30.05 in 10.0 mi Calm Calm - N/A   Overcast
12:35 PM 71.6 °F 68.0 °F 88% 30.04 in 10.0 mi Calm Calm - N/A Rain Light Rain
12:55 PM 71.6 °F 68.0 °F 88% 30.03 in 10.0 mi Calm Calm - N/A   Drizzle
1:15 PM 71.6 °F 68.0 °F 88% 30.03 in 10.0 mi Calm Calm - N/A   Overcast
1:35 PM 71.6 °F 68.0 °F 88% 30.03 in 10.0 mi Calm Calm - N/A   Overcast
1:55 PM 71.6 °F 69.8 °F 94% 30.03 in 10.0 mi Calm Calm - N/A   Overcast
2:15 PM 71.6 °F 69.8 °F 94% 30.03 in 10.0 mi North 5.8 mph - N/A   Overcast
2:35 PM 71.6 °F 68.0 °F 88% 30.03 in 10.0 mi North 3.5 mph - N/A Rain Rain
2:55 PM 71.6 °F 68.0 °F 88% 30.03 in 10.0 mi North 3.5 mph - N/A   Overcast
3:15 PM 69.8 °F 68.0 °F 94% 30.04 in 10.0 mi North 8.1 mph - N/A   Overcast
3:35 PM 69.8 °F 68.0 °F 94% 30.04 in 10.0 mi North 5.8 mph - N/A   Overcast
3:55 PM 69.8 °F 68.0 °F 94% 30.05 in 7.0 mi North 4.6 mph - N/A   Drizzle
4:15 PM 68.0 °F 68.0 °F 100% 30.06 in 7.0 mi NNW 5.8 mph - N/A   Overcast
4:35 PM 68.0 °F 66.2 °F 94% 30.07 in 7.0 mi NW 6.9 mph - N/A   Overcast
4:55 PM 64.4 °F 64.4 °F 100% 30.07 in 7.0 mi North 11.5 mph - N/A   Overcast
5:15 PM 64.4 °F 64.4 °F 100% 30.03 in 7.0 mi NE 8.1 mph - N/A   Overcast
5:35 PM 64.4 °F 62.6 °F 94% 30.04 in 7.0 mi ENE 6.9 mph 17.3 mph N/A Rain Light Rain
5:55 PM 64.4 °F 62.6 °F 94% 30.05 in 7.0 mi NNE 5.8 mph - N/A   Overcast
6:15 PM 62.6 °F 62.6 °F 100% 30.06 in 7.0 mi NNE 5.8 mph - N/A   Overcast
6:35 PM 62.6 °F 60.8 °F 94% 30.06 in 5.0 mi North 8.1 mph - N/A   Overcast
6:55 PM 60.8 °F 60.8 °F 100% 30.06 in 5.0 mi NNE 5.8 mph - N/A   Overcast
7:15 PM 60.8 °F 60.8 °F 100% 30.07 in 5.0 mi North 4.6 mph - N/A   Overcast
7:35 PM 60.8 °F 60.8 °F 100% 30.08 in 5.0 mi Calm Calm - N/A   Overcast
7:55 PM 60.8 °F 60.8 °F 100% 30.08 in 5.0 mi Calm Calm - N/A   Overcast
8:15 PM 60.8 °F 60.8 °F 100% 30.07 in 7.0 mi ENE 6.9 mph - N/A   Overcast
8:35 PM 62.6 °F 62.6 °F 100% 30.09 in 7.0 mi NNE 4.6 mph - N/A   Overcast
8:55 PM 62.6 °F 60.8 °F 94% 30.09 in 7.0 mi NE 3.5 mph - N/A   Overcast
9:15 PM 60.8 °F 60.8 °F 100% 30.09 in 5.0 mi ENE 6.9 mph - N/A   Overcast
9:35 PM 60.8 °F 60.8 °F 100% 30.10 in 3.0 mi Calm Calm - N/A   Overcast
9:55 PM 60.8 °F 60.8 °F 100% 30.10 in 1.8 mi NE 4.6 mph - N/A   Overcast
10:35 PM 60.8 °F 60.8 °F 100% 30.11 in 1.2 mi NNE 3.5 mph - N/A   Overcast
10:55 PM 60.8 °F 60.8 °F 100% 30.11 in 1.8 mi Calm Calm - N/A   Overcast
11:15 PM 60.8 °F 60.8 °F 100% 30.11 in 1.8 mi Calm Calm - N/A   Overcast
11:35 PM 60.8 °F 60.8 °F 100% 30.11 in 2.0 mi Calm Calm - N/A   Overcast
11:55 PM 60.8 °F 60.8 °F 100% 30.11 in 3.0 mi NNW 4.6 mph - N/A   Overcast